Погода в Висагинасе

Литва     55°36′00″N   26°26′04″E
темп.,
°C
ветер,
м/с
пор.,
м/с
влажн.,
%
обл.,
%
осадки,
мм/ч
давл.,
гПа
погр.,
м
12 мая, ср
ср1200:00+10юв4128125 0.0 1020230
03:00+9юв399288 0.0 1020179
06:00+10вюв389547 0.0 1021168
09:00+16юв577861 0.0 1020476
12:00+19юв686231 0.0 10201313
15:00+18юв576074 0.0 10181667
18:00+18юв47521 0.0 10181710
21:00+12в36765 0.0 101790
13 мая, чт
чт1300:00+10всв117925 0.0 101510
03:00+11ссз2669100 0.0 1011163
06:00+10с269798 8.9 1009320
09:00+10вюв51095100 9.0 1009759
12:00+12вюв6982100 0.8 10091150
15:00+10юв598541 2.4 1009871
18:00+10ююв498269 0.4 1009708
21:00+9юв3791100 0.6 1009364
14 мая, пт
пт1400:00+9вюв3993100 0.5 1008330
03:00+9вюв41195100 0.7 1007525
06:00+9вюв51197100 0.6 1006621
09:00+10юв61394100 2.4 1006682
12:00+13юв61188100 0.2 10061016
15:00+12юв6109196 0.8 1006828
18:00+14юв588555 0.2 1006843
21:00+12юв38949 0.3 1006175
15 мая, сб
сб1500:00+10юв2495100 0.0 100658
03:00+10юв2396100 0.1 100548
06:00+11вюв2298100 0.4 100561
09:00+12ю1295100 1.7 1005153
12:00+15зюз348555 0.6 1006573
15:00+18з346726 2.2 10061101
18:00+16зсз57807 0.9 1007759
21:00+12з35895 1.0 100892
16 мая, вс
вс1600:00+8з389541 0.0 1009158
03:00+7зсз24956 0.0 101079
06:00+7з229443 0.0 101129
09:00+13зюз127133 0.0 1012421
12:00+17ююв21555 0.0 10121099
15:00+18ююв3354100 0.0 10121408
18:00+18юв3564100 0.0 10111068
21:00+13юв3584100 0.0 101099